Regional Weather Roundup
Issued by NWS State College, PA

Home | Current Version | Previous Version | Graphics & Text | Print | Product List | Glossary Off
Versions: 1 2 3 4 5 6 7 8 9 10 11 12 13 14 15 16 17 18 19 20 21 22 23 24 25 26 27 28 29 30 31 32 33 34 35 36 37 38 39 40 41 42 43 44 45 46 47 48 49 50

000
ASUS41 KCTP 242203
RWRCTP

REGIONAL WEATHER ROUNDUP
NATIONAL WEATHER SERVICE STATE COLLEGE PA
500 PM EST TUE JAN 24 2017

Note: "fair" indicates few or no clouds below 12,000 feet with no
significant weather and/or obstructions to visibility.

* = STATION THAT DOES NOT REPORT PRECIPITATION /E.G. RAIN...SNOW...ETC/
    THUNDER OR FOG.

PAZ002>004-007>009-013>016-020>023-029>032-242300-
WESTERN PENNSYLVANIA

CITY           SKY/WX    TMP DP  RH WIND       PRES   REMARKS
ERIE           FOG       34  33  96 W6        29.71R VSB 1/4
MEADVILLE      FOG       33  31  92 W8        29.68R VSB 1/2
FRANKLIN*        N/A     34  28  80 NW9       29.68R
NEW CASTLE     CLOUDY    37  35  92 W7G16     29.72
BEAVER COUNTY  CLOUDY    37  36  93 NW8       29.71
BUTLER*        CLOUDY    36  34  93 W7        29.72R
PITTSBURGH INT CLOUDY    39  37  92 NW9       29.70R
PITTSBURGH     CLOUDY    39  34  82 NW6       29.69R
INDIANA*       CLOUDY    36  34  93 NW8       29.69R
LATROBE        CLOUDY    37  36  93 W7        29.69R
WASHINGTON CO* CLOUDY    39  36  87 W9G17     29.72R
$$

PAZ004>006-010>012-017>019-024>028-033>037-041-042-045-046-049>053-242300-
CENTRAL PENNSYLVANIA

CITY           SKY/WX    TMP DP  RH WIND       PRES   REMARKS
BRADFORD       LGT SNOW  30  29  96 NW9       29.59R VSB 3/4
DUBOIS         CLOUDY    33  29  85 W14G23    29.61R
CLEARFIELD       N/A    N/A N/A N/A MISG      29.61S
JOHNSTOWN      CLOUDY    33  33 100 NW20G28   29.60R FOG
ALTOONA        CLOUDY    37  32  82 NW14      29.62R
STATE COLLEGE  DRIZZLE   36  32  87 NW7       29.60R
WILLIAMSPORT   CLOUDY    37  32  82 W10       29.57R
SELINSGROVE    CLOUDY    39  34  82 NW7       29.58R
FT INDIANTOWN  LGT RAIN  39  36  87 NW9G21    29.53R
CAPITAL CITY   CLOUDY    43  31  62 NW17      29.56R
HARRISBURG     DRIZZLE   42  34  73 NW20G25   29.54R
YORK           CLOUDY    42  34  73 NW12      29.55R
$$

PAZ038>040-043-044-047-048-054-055-060>062-067>071-242300-
EASTERN PENNSYLVANIA

CITY           SKY/WX    TMP DP  RH WIND       PRES   REMARKS
SCRANTON       CLOUDY    35  31  85 NW12      29.50R
MOUNT POCONO   LGT SNOW  31  28  89 NW18G37   29.39R FOG
ALLENTOWN      LGT RAIN  41  30  65 NW14G21   29.46R
QUAKERTOWN*    CLOUDY    39  32  75 NW10G20   29.46R
READING        CLOUDY    40  33  76 NW12G22   29.49R
LANCASTER      CLOUDY    41  34  76 NW16      29.52R
COATESVILLE    CLOUDY    39  32  75 NW22G29   29.49R
POTTSTOWN      CLOUDY    39  32  76 NW14G20   29.48R
BLUE BELL      CLOUDY    39  32  75 NW12G18   29.44R
DOYLESTOWN     CLOUDY    42  33  70 NW17G28   29.42R
WILLOW GROVE   NOT AVBL
NORTH PHILA    CLOUDY    44  33  65 NW17G31   29.44R
PHILADELPHIA   CLOUDY    43  31  62 NW21G29   29.46R
$$




USA.gov is the U.S. government's official web portal to all federal, state and local government web resources and services.